Change the Weather History Date:

Sunday, April 8, 2012

  Actual Average Record
Temperature  
Mean Temperature 46 °F 44 °F  
Max Temperature 57 °F 54 °F 85 °F (1929)
Min Temperature 36 °F 35 °F 18 °F (1982)
Degree Days  
Heating Degree Days 18 21  
Month to date heating degree days 176  
Since 1 July heating degree days 5968  
Cooling Degree Days 0 0  
Month to date cooling degree days 0  
Year to date cooling degree days 0  
Moisture  
Dew Point 23 °F    
Average Humidity 41    
Maximum Humidity 59    
Minimum Humidity 27    
Precipitation  
Precipitation 0.00 in 0.14 in 1.51 in (1899)
Month to date precipitation 1.08  
Year to date precipitation 9.60  
Sea Level Pressure  
Sea Level Pressure 30.01 in    
Wind  
Wind Speed 11 mph (West)    
Max Wind Speed 23 mph    
Max Gust Speed 33 mph    
Visibility 10 miles    
Events      
T = Trace of Precipitation, MM = Missing Value Source: NWS Daily Summary

Daily Weather History Graph

Daily Weather History Graph

Search for Another Location

Airport or City:

Trip Planner

Search our weather history database for the weather conditions in past years. The results will help you decide how hot, cold, wet, or windy it might be!

Date:

Astronomy

Apr. 08, 2012 Rise Set
Actual Time 6:47 AM EDT 7:47 PM EDT
Civil Twilight 6:19 AM EDT 8:15 PM EDT
Nautical Twilight 5:46 AM EDT 8:48 PM EDT
Astronomical Twilight 5:11 AM EDT 9:23 PM EDT
Moon 10:32 PM EDT (4/8) 7:41 AM EDT (4/8)
Length of Visible Light 13h 55m
Length of Day
13h 00m
Waning Gibbous, 95% of the Moon is Illuminated
Apr 8
Waning Gibbous
Apr 13
Last Quarter
Apr 21
New
Apr 29
First Quarter
May 5
Full

Hourly Weather History & Observations

Time (EDT) Temp. Windchill Dew Point Humidity Pressure Visibility Wind Dir Wind Speed Gust Speed Precip Events Conditions
12:54 AM 41.0 °F 35.2 °F 14.0 °F 33% 30.14 in 10.0 mi NW 9.2 mph - N/A   Clear
1:54 AM 39.0 °F 32.8 °F 14.0 °F 36% 30.12 in 10.0 mi WNW 9.2 mph - N/A   Clear
2:54 AM 37.0 °F 31.0 °F 14.0 °F 39% 30.10 in 10.0 mi WNW 8.1 mph - N/A   Clear
3:54 AM 36.0 °F 30.3 °F 14.0 °F 41% 30.09 in 10.0 mi West 6.9 mph - N/A   Clear
4:54 AM 37.0 °F 31.0 °F 14.0 °F 39% 30.08 in 10.0 mi West 8.1 mph - N/A   Clear
5:54 AM 36.0 °F 31.1 °F 15.1 °F 43% 30.07 in 10.0 mi West 5.8 mph - N/A   Clear
6:54 AM 36.0 °F 31.1 °F 15.1 °F 43% 30.07 in 10.0 mi WSW 5.8 mph - N/A   Clear
7:54 AM 39.0 °F 35.7 °F 17.1 °F 41% 30.07 in 10.0 mi WSW 4.6 mph - N/A   Clear
8:54 AM 42.1 °F 37.7 °F 18.0 °F 38% 30.06 in 10.0 mi WSW 6.9 mph - N/A   Clear
9:54 AM 46.9 °F - 18.0 °F 32% 30.04 in 10.0 mi West 9.2 mph - N/A   Clear
10:54 AM 52.0 °F - 19.0 °F 27% 30.02 in 10.0 mi West 18.4 mph 24.2 mph N/A   Clear
11:54 AM 55.0 °F - 21.9 °F 28% 29.98 in 10.0 mi West 15.0 mph 23.0 mph N/A   Clear
12:54 PM 57.0 °F - 30.0 °F 36% 29.95 in 10.0 mi West 17.3 mph 28.8 mph N/A   Clear
1:54 PM 53.1 °F - 30.9 °F 43% 29.96 in 10.0 mi West 21.9 mph 29.9 mph N/A   Overcast
2:54 PM 51.1 °F - 33.1 °F 50% 29.96 in 10.0 mi West 18.4 mph 25.3 mph N/A   Overcast
3:54 PM 50.0 °F - 35.1 °F 57% 29.96 in 10.0 mi West 15.0 mph 26.5 mph N/A   Overcast
4:54 PM 50.0 °F - 36.0 °F 59% 29.95 in 10.0 mi West 18.4 mph 24.2 mph N/A   Overcast
5:54 PM 50.0 °F - 34.0 °F 54% 29.95 in 10.0 mi WNW 23.0 mph 29.9 mph N/A   Overcast
6:54 PM 50.0 °F - 28.9 °F 44% 29.94 in 10.0 mi WNW 17.3 mph 31.1 mph N/A   Partly Cloudy
7:54 PM 48.0 °F - 28.9 °F 48% 29.95 in 10.0 mi WNW 17.3 mph 24.2 mph N/A   Clear
8:54 PM 46.0 °F 40.2 °F 28.0 °F 50% 29.96 in 10.0 mi West 12.7 mph 23.0 mph N/A   Clear
9:54 PM 46.0 °F 41.0 °F 25.0 °F 44% 29.94 in 10.0 mi West 10.4 mph 21.9 mph N/A   Clear
10:54 PM 46.0 °F 38.5 °F 19.0 °F 34% 29.93 in 10.0 mi WNW 19.6 mph 33.4 mph N/A   Clear
11:54 PM 44.6 °F 36.1 °F 17.6 °F 34% 29.93 in 10.0 mi WNW 21.9 mph 32.2 mph N/A   Clear